Temp
13 14 14 14 14 14 15 15 15 15 15 16 16 15 15 15 15 15 16 17 16 16 16 16 16 16 16 16 17 17 13 13 16 19 19 19 19 19 19 19 19 19 18 18 17
13 14 14 14 14 15 15 15 15 15 15 16 16 15 15 15 15 16 17 16 16 16 16 16 16 16 16 17 17 14 11 15 18 19 19 19 19 18 18 18 18 18 17 17 16
13 14 14 15 15 15 15 15 15 15 15 16 15 15 15 15 15 17 17 16 16 16 16 16 16 16 16 17 17 16 13 16 19 19 19 18 17 19 17 16 18 18 16 16 16
14 14 14 15 15 15 15 15 15 16 16 15 15 15 15 15 16 17 18 16 16 17 16 16 16 16 16 15 18 16 16 17 18 19 18 17 17 17 18 18 19 19 18 17 16
14 14 14 15 15 15 15 15 15 16 16 15 15 15 15 14 16 17 17 17 17 17 16 16 16 17 16 15 17 15 16 19 19 18 18 17 16 15 16 19 19 19 18 17 17
14 14 15 15 15 15 15 16 16 16 15 15 15 15 14 13 16 17 17 17 17 16 16 16 17 17 17 17 16 17 17 17 18 18 17 16 15 16 17 19 18 18 18 18 18
14 14 15 15 15 15 15 16 16 15 15 15 15 14 14 16 16 16 16 16 16 16 16 16 16 16 16 16 17 17 16 14 15 16 16 16 14 13 20 18 19 19 18 18 18
14 14 15 16 16 16 16 16 16 15 15 15 14 14 15 16 15 16 16 16 15 15 15 15 16 16 16 16 16 16 15 14 16 14 16 17 14 16 20 18 17 18 19 18 18
14 14 15 16 16 15 16 16 16 15 14 14 14 13 14 15 15 15 15 15 15 15 15 15 15 15 16 14 12 14 13 14 15 15 13 14 14 16 19 18 17 18 18 18 18
14 14 15 15 16 15 16 15 15 14 13 13 13 13 14 15 16 15 14 14 14 14 14 14 14 12 11 11 12 13 13 15 15 16 14 12 12 14 17 17 18 19 19 19 18
14 14 15 15 15 16 16 15 14 13 13 17 17 17 16 15 15 15 14 14 14 14 12 13 11 10 11 12 13 15 14 13 14 16 14 13 14 14 15 16 15 18 18 19 19
13 14 14 15 15 15 15 14 14 13 12 16 15 14 15 16 14 14 14 14 14 11 13 13 10 12 13 13 13 13 13 13 14 16 14 13 13 13 14 14 18 17 17 18 19
13 13 14 14 14 15 14 13 13 12 9 14 14 15 14 15 15 14 14 14 12 12 12 11 13 14 13 13 13 13 13 13 14 15 14 13 13 13 14 15 18 18 18 18 19
12 12 13 14 13 13 13 13 12 12 10 14 14 14 14 14 14 14 15 15 14 12 12 12 14 14 14 14 14 12 14 14 14 14 11 13 11 14 15 16 15 17 17 17 18
12 12 12 12 12 13 12 12 12 12 10 15 13 13 14 14 14 13 13 14 13 14 14 12 15 14 13 15 14 14 15 15 15 13 13 13 11 13 15 16 15 15 15 15 16
12 12 12 12 12 11 11 12 12 11 10 14 12 13 13 13 14 12 13 13 13 13 12 11 14 14 13 14 14 14 14 14 11 10 10 12 12 13 14 15 16 10 11 12 13
12 12 11 11 11 11 12 12 9 10 15 14 14 13 13 13 13 12 11 10 10 11 10 12 13 13 15 14 13 14 11 10 10 8 10 11 10 14 14 8 9 10 9 9 10
11 10 10 9 10 11 12 9 11 12 12 13 13 14 14 16 13 12 11 10 10 11 10 10 12 12 12 13 11 10 11 9 11 10 10 11 11 9 3 1 -0 -0 2 7 7
9 9 8 9 10 10 11 9 9 10 10 10 11 13 12 12 11 13 11 11 12 11 11 12 12 13 12 13 13 12 10 12 11 11 9 9 12 8 1 -1 -2 -2 -1 2 3
9 9 8 9 10 10 8 11 9 8 9 10 10 10 9 9 9 9 10 4 6 8 7 10 11 13 12 13 12 11 11 11 9 11 10 9 10 5 -2 -3 -3 -3 -2 -2 -2
9 9 9 10 10 11 7 7 8 7 9 8 7 8 7 6 6 8 10 5 5 5 6 5 8 11 11 10 10 9 10 10 10 9 11 10 5 -3 -5 -5 -5 -5 -6 -5 -6
9 5 8 10 8 6 4 7 8 6 6 6 6 6 6 6 5 7 7 5 5 3 4 4 5 6 9 12 11 11 12 12 12 10 8 12 4 -5 -6 -7 -7 -7 -8 -8 -8
7 8 8 10 3 2 4 5 6 5 4 4 4 3 3 4 4 5 5 6 5 5 2 3 5 6 8 9 7 7 4 3 5 7 8 9 1 -6 -6 -7 -8 -9 -9 -10 -10
6 3 6 6 5 3 4 5 4 4 4 4 4 3 3 3 3 2 2 4 3 4 5 3 3 4 5 4 4 4 -0 -1 2 4 1 -0 -6 -9 -8 -8 -9 -10 -11 -11 -11
4 1 1 -0 1 2 3 2 3 1 2 3 3 0 -0 0 1 1 2 1 3 4 4 4 1 3 4 3 4 -3 -4 -4 -4 -5 -2 -6 -9 -10 -10 -9 -10 -11 -11 -12 -12
1 -1 1 2 3 2 1 -0 1 1 1 2 0 0 0 -1 0 -1 -1 -0 0 2 1 1 -3 1 0 3 4 -5 -6 -6 -7 -8 -6 -7 -8 -11 -11 -10 -11 -12 -12 -12 -13
-0 -1 -0 1 0 -0 -0 -0 -0 0 0 1 0 -0 -1 0 -0 -0 -0 -0 -0 -0 -0 -0 -2 -6 -5 2 -0 -2 -8 -8 -9 -11 -9 -9 -11 -11 -12 -11 -12 -12 -13 -13 -13
Height
1484 1484 1483 1483 1483 1483 1483 1483 1483 1483 1484 1484 1484 1484 1484 1484 1483 1483 1482 1483 1483 1485 1486 1486 1488 1491 1492 1494 1495 1496 1504 1506 1494 1485 1483 1479 1479 1480 1481 1482 1482 1483 1482 1483 1485
1484 1483 1482 1482 1482 1482 1482 1481 1482 1482 1483 1483 1483 1483 1482 1482 1481 1479 1480 1480 1482 1483 1484 1485 1487 1490 1492 1492 1494 1495 1505 1494 1481 1478 1479 1479 1478 1478 1480 1479 1480 1480 1480 1480 1483
1485 1483 1482 1481 1480 1480 1480 1480 1480 1480 1481 1482 1482 1482 1482 1480 1479 1475 1475 1478 1481 1482 1484 1485 1487 1489 1491 1490 1490 1490 1494 1482 1478 1477 1477 1477 1477 1477 1476 1477 1474 1474 1476 1478 1479
1485 1483 1481 1480 1478 1478 1478 1478 1478 1479 1480 1480 1480 1481 1480 1480 1481 1475 1475 1476 1479 1481 1482 1483 1486 1488 1488 1488 1485 1487 1480 1479 1476 1476 1475 1476 1475 1473 1471 1468 1470 1471 1471 1472 1474
1485 1483 1480 1478 1476 1476 1476 1477 1477 1478 1478 1478 1479 1479 1480 1479 1475 1475 1475 1476 1478 1479 1480 1482 1483 1485 1485 1482 1482 1481 1477 1475 1474 1474 1473 1472 1471 1472 1465 1464 1467 1468 1468 1468 1469
1485 1483 1480 1477 1475 1474 1474 1475 1475 1476 1476 1477 1477 1477 1478 1478 1473 1473 1474 1475 1476 1477 1478 1480 1482 1483 1482 1480 1480 1476 1475 1473 1470 1469 1470 1470 1469 1469 1456 1458 1459 1462 1462 1463 1464
1485 1482 1480 1477 1475 1474 1473 1473 1473 1474 1474 1475 1475 1475 1475 1472 1470 1472 1473 1474 1474 1475 1477 1479 1480 1482 1480 1478 1476 1474 1476 1471 1464 1461 1466 1467 1468 1463 1449 1455 1455 1455 1457 1458 1459
1485 1482 1479 1477 1474 1473 1472 1471 1471 1471 1472 1472 1473 1473 1470 1467 1467 1469 1471 1472 1473 1474 1475 1476 1477 1479 1479 1478 1476 1476 1476 1480 1459 1459 1464 1466 1470 1451 1449 1450 1450 1452 1452 1453 1454
1485 1482 1479 1476 1473 1472 1471 1469 1468 1468 1469 1470 1471 1471 1467 1465 1465 1467 1469 1470 1471 1472 1473 1475 1476 1477 1477 1480 1486 1478 1484 1477 1466 1458 1461 1466 1462 1448 1446 1446 1447 1448 1448 1448 1448
1484 1481 1478 1476 1473 1472 1470 1467 1466 1466 1467 1469 1469 1472 1464 1462 1462 1463 1467 1469 1470 1471 1472 1474 1475 1476 1477 1483 1491 1480 1480 1471 1468 1460 1461 1465 1460 1449 1446 1446 1444 1443 1442 1441 1441
1482 1480 1478 1475 1473 1471 1469 1467 1470 1469 1465 1460 1459 1457 1458 1460 1462 1463 1466 1468 1470 1471 1472 1471 1477 1475 1470 1468 1466 1466 1469 1473 1462 1455 1459 1459 1452 1445 1442 1442 1438 1434 1431 1432 1432
1481 1478 1476 1473 1471 1470 1468 1467 1467 1468 1460 1454 1453 1456 1457 1458 1460 1462 1465 1468 1467 1469 1468 1472 1473 1460 1461 1464 1468 1468 1470 1468 1457 1450 1456 1453 1450 1442 1437 1434 1430 1424 1422 1422 1425
1478 1476 1473 1472 1470 1469 1468 1467 1465 1464 1462 1451 1450 1450 1454 1457 1457 1457 1461 1462 1463 1466 1466 1469 1458 1450 1458 1461 1465 1462 1463 1462 1461 1451 1450 1452 1447 1441 1427 1425 1420 1416 1415 1415 1416
1475 1473 1471 1470 1470 1467 1466 1466 1464 1462 1467 1452 1450 1451 1452 1454 1455 1454 1457 1461 1460 1461 1462 1461 1450 1451 1453 1456 1456 1462 1451 1452 1454 1459 1470 1451 1463 1437 1429 1421 1416 1409 1410 1410 1412
1472 1469 1468 1467 1467 1466 1467 1465 1463 1463 1492 1450 1451 1452 1452 1455 1455 1456 1456 1458 1458 1457 1457 1455 1445 1448 1451 1445 1447 1447 1444 1447 1448 1455 1457 1454 1467 1437 1427 1422 1411 1406 1407 1411 1414
1467 1464 1464 1464 1464 1464 1464 1463 1464 1472 1486 1452 1452 1453 1455 1454 1454 1454 1456 1457 1457 1457 1454 1450 1445 1444 1442 1441 1441 1442 1446 1449 1455 1463 1471 1453 1460 1436 1431 1419 1411 1410 1409 1412 1416
1462 1459 1460 1461 1462 1462 1463 1463 1475 1482 1445 1455 1453 1453 1454 1453 1453 1452 1455 1458 1461 1463 1460 1446 1440 1435 1436 1442 1443 1443 1454 1471 1470 1479 1462 1443 1456 1433 1424 1440 1435 1424 1424 1425 1426
1459 1458 1459 1460 1460 1460 1461 1465 1472 1461 1460 1456 1456 1452 1454 1446 1447 1450 1454 1459 1455 1454 1456 1455 1445 1433 1429 1431 1438 1445 1445 1462 1460 1464 1453 1441 1446 1446 1460 1452 1446 1444 1440 1437 1435
1461 1460 1460 1460 1459 1460 1462 1473 1478 1471 1469 1465 1457 1457 1459 1456 1459 1452 1454 1453 1448 1450 1456 1447 1439 1425 1425 1426 1429 1438 1446 1434 1444 1443 1454 1444 1428 1436 1447 1453 1453 1450 1447 1446 1442
1462 1461 1461 1461 1460 1460 1463 1466 1474 1475 1471 1466 1467 1467 1471 1467 1466 1465 1460 1474 1465 1462 1460 1446 1440 1422 1424 1425 1427 1431 1431 1441 1445 1447 1450 1437 1433 1451 1474 1476 1472 1464 1460 1457 1451
1462 1463 1464 1461 1461 1462 1471 1475 1474 1477 1474 1474 1475 1474 1477 1481 1480 1471 1461 1471 1469 1464 1461 1462 1449 1429 1428 1428 1428 1434 1433 1430 1430 1432 1430 1433 1455 1493 1496 1492 1485 1481 1475 1468 1460
1462 1467 1466 1462 1465 1469 1479 1478 1478 1479 1478 1479 1479 1480 1480 1481 1481 1476 1471 1475 1475 1477 1474 1471 1462 1449 1431 1418 1416 1418 1417 1417 1418 1422 1426 1411 1454 1502 1500 1498 1493 1488 1483 1478 1472
1467 1470 1469 1464 1480 1485 1482 1482 1481 1481 1485 1484 1484 1486 1487 1487 1486 1478 1474 1473 1475 1475 1476 1473 1463 1453 1429 1420 1426 1433 1448 1453 1442 1428 1420 1417 1464 1503 1499 1496 1494 1490 1487 1483 1480
1471 1476 1474 1475 1482 1484 1486 1484 1486 1486 1487 1488 1486 1488 1488 1487 1486 1484 1482 1476 1476 1475 1472 1473 1467 1464 1458 1459 1461 1453 1464 1466 1455 1441 1454 1460 1489 1504 1503 1499 1495 1492 1489 1487 1483
1476 1486 1488 1490 1486 1487 1487 1490 1489 1494 1491 1489 1486 1495 1498 1494 1489 1484 1481 1479 1475 1471 1468 1471 1470 1463 1459 1459 1460 1481 1482 1477 1475 1484 1470 1490 1502 1510 1508 1502 1496 1495 1491 1487 1483
1484 1490 1490 1490 1490 1489 1491 1498 1498 1497 1496 1492 1495 1495 1496 1497 1493 1489 1488 1485 1479 1472 1471 1471 1482 1468 1462 1455 1453 1489 1490 1491 1494 1496 1489 1489 1494 1505 1507 1500 1493 1491 1492 1491 1487
1492 1494 1494 1495 1494 1495 1501 1500 1499 1498 1495 1493 1493 1493 1492 1489 1487 1483 1481 1477 1474 1475 1474 1476 1474 1485 1484 1453 1462 1470 1502 1502 1508 1511 1504 1503 1511 1508 1503 1492 1495 1492 1492 1491 1488
Wind_Speed
6 3 2 2 4 5 6 6 6 6 6 6 5 5 7 9 11 13 14 7 9 5 6 9 12 12 9 5 8 1 3 3 4 2 0 1 2 2 2 4 3 8 7 7 15
8 5 3 3 4 5 6 6 6 6 6 5 5 4 5 9 11 16 7 6 6 7 10 11 12 11 5 7 5 4 3 7 4 1 0 2 3 6 4 4 6 7 7 9 13
12 8 4 4 5 5 6 6 5 5 5 5 4 3 4 8 10 5 8 10 8 8 12 11 7 10 9 7 9 6 6 4 4 1 2 2 5 7 7 6 13 16 19 18 19
16 13 8 5 4 5 5 5 5 5 5 5 5 4 5 8 2 3 1 10 11 11 14 13 10 14 4 6 16 4 13 15 7 6 3 3 4 5 14 16 6 9 15 26 26
18 16 13 7 4 5 5 6 6 6 5 5 5 6 7 5 9 7 5 8 10 11 14 13 11 10 3 5 7 6 5 13 14 11 11 8 12 9 17 21 23 23 19 23 29
19 19 16 11 6 3 4 5 6 6 6 6 5 6 6 4 6 5 7 9 10 11 13 14 8 7 8 6 2 3 4 10 13 14 10 6 4 3 12 13 23 26 19 25 25
18 18 17 14 6 5 4 4 6 7 7 7 6 6 10 14 9 6 7 7 9 11 11 12 13 9 3 5 6 6 6 8 11 11 5 7 7 10 28 17 15 17 26 28 28
18 18 18 16 8 3 6 5 6 7 8 8 6 7 8 7 11 15 11 10 9 11 12 9 12 12 5 5 6 3 0 3 5 9 4 7 9 8 13 17 25 21 19 25 32
17 17 17 17 11 6 7 5 4 5 7 6 5 5 8 5 14 13 11 9 9 8 9 9 7 6 3 2 4 2 4 6 7 5 5 5 8 6 1 7 19 22 24 25 27
15 16 16 16 11 8 7 6 3 2 5 6 8 4 8 8 7 12 11 9 6 8 6 5 5 2 1 4 6 6 5 6 5 5 2 5 14 12 21 13 20 23 24 27 28
16 15 14 14 8 9 8 3 2 2 6 9 6 7 3 9 7 13 18 13 5 5 5 6 3 10 12 12 7 4 4 8 6 6 7 10 15 15 14 17 19 33 37 38 35
16 15 13 13 7 8 6 2 3 5 10 15 23 20 6 10 4 10 14 13 8 6 3 1 9 11 7 7 9 10 11 10 7 4 8 8 11 10 9 10 26 31 31 38 38
17 16 14 12 6 9 5 7 7 8 3 5 1 5 12 10 7 16 20 10 5 5 7 7 7 4 8 10 9 11 7 6 9 4 3 5 9 8 9 9 26 31 35 30 29
18 16 14 9 1 8 4 10 9 6 4 3 1 1 7 7 3 9 20 5 4 9 7 8 15 16 13 6 8 8 7 9 6 3 5 5 6 5 9 14 10 22 16 19 17
19 17 11 10 6 3 4 9 7 2 4 1 3 5 4 5 2 3 10 10 3 3 2 9 3 5 8 15 9 10 6 5 2 4 2 1 3 6 3 6 13 7 14 10 8
18 16 9 7 6 3 6 7 2 5 5 2 3 3 2 4 2 3 4 3 2 4 7 10 5 4 7 1 3 4 3 3 4 3 4 8 7 2 5 6 3 5 8 12 10
19 11 6 4 3 4 6 2 5 4 4 2 2 3 3 4 5 6 5 4 5 1 5 4 10 8 5 3 1 3 6 2 3 0 8 4 5 10 8 26 21 8 12 15 13
11 6 6 4 2 2 2 3 3 2 5 6 6 5 4 1 6 5 4 2 7 5 3 4 10 10 6 13 8 7 9 6 6 5 4 2 6 3 11 29 37 35 32 17 21
10 12 13 8 3 2 3 3 3 5 6 7 6 4 5 7 7 6 6 3 2 7 5 4 6 0 3 4 7 3 5 7 3 2 1 5 5 6 26 27 35 39 33 25 26
9 9 20 10 4 4 4 2 5 6 7 5 3 5 5 8 8 8 6 3 12 11 13 8 11 11 3 3 1 5 3 2 2 4 6 5 2 5 21 22 23 27 33 30 32
5 4 19 7 3 4 3 3 4 16 18 9 6 5 5 6 5 6 4 5 11 13 10 12 5 5 3 5 8 1 3 5 3 5 7 6 2 8 12 15 17 24 31 33 34
6 3 21 5 6 5 3 4 8 7 16 7 4 6 3 8 5 7 5 3 14 11 7 8 5 7 10 4 6 5 6 6 9 9 5 11 4 8 11 14 19 22 25 27 31
5 4 17 5 4 4 5 6 7 6 6 6 5 5 4 3 4 3 5 7 6 13 4 6 3 6 7 3 5 7 8 8 8 4 11 10 4 8 12 16 20 22 24 25 26
3 3 8 14 11 4 3 3 5 18 5 8 2 4 2 3 4 5 6 6 22 16 10 7 4 7 7 10 9 7 8 9 3 4 6 5 8 11 11 11 18 22 22 24 27
7 3 4 3 6 4 3 5 5 6 10 11 3 8 5 4 6 5 4 5 4 9 4 2 4 8 11 12 10 8 8 12 5 6 2 3 6 6 9 6 10 14 18 25 30
6 6 6 5 9 6 8 6 6 5 3 4 4 9 5 5 9 10 6 3 5 5 3 5 5 8 16 13 7 13 13 9 10 8 5 5 4 11 14 8 13 17 19 21 24
11 8 4 9 5 4 3 4 6 6 7 7 9 7 7 11 13 21 22 24 19 11 14 5 3 2 5 2 7 4 11 9 9 11 4 6 5 14 13 15 11 17 20 21 24
Wind_Direction
25 10 315 258 245 242 250 251 247 252 250 249 255 258 271 284 285 271 257 229 218 219 205 171 169 161 176 220 225 260 52 251 255 5 236 228 118 174 214 221 192 197 200 195 188
21 3 328 283 259 251 253 252 252 255 252 248 250 260 291 297 287 267 221 210 218 236 192 168 159 151 178 210 203 141 156 229 231 190 197 185 185 188 195 218 229 206 213 203 191
23 10 341 289 264 252 248 247 251 251 247 244 239 250 301 314 307 274 206 198 231 215 177 168 157 176 218 227 197 196 211 222 299 166 4 317 295 226 193 231 225 215 198 205 209
25 18 359 316 275 255 247 248 246 241 233 228 228 249 290 312 273 317 182 205 224 197 182 185 198 189 214 215 208 212 233 247 277 261 213 213 269 270 231 231 193 196 239 222 214
25 22 13 349 300 266 255 251 249 241 227 222 240 256 284 273 259 257 197 193 199 192 190 177 193 194 226 227 240 223 249 252 284 251 234 232 251 250 265 253 243 248 249 226 229
22 21 19 18 10 315 268 260 257 250 234 235 250 262 263 251 256 244 219 208 201 191 186 181 196 216 277 257 198 265 247 278 282 263 240 205 255 217 260 265 246 236 237 238 233
20 19 17 15 14 37 5 296 266 254 247 247 255 260 260 257 255 253 219 216 208 194 182 201 222 256 316 293 308 302 315 310 253 235 220 187 284 232 266 253 240 231 232 233 240
16 15 13 7 6 342 353 331 275 256 248 251 256 264 254 254 247 253 243 212 204 199 202 204 225 248 236 294 315 261 238 297 283 139 189 139 268 263 270 242 233 233 230 230 236
11 10 9 8 9 6 347 337 306 256 240 238 242 247 269 233 215 237 225 216 194 200 205 217 210 211 186 135 342 272 243 221 308 178 132 168 262 253 223 203 234 242 244 236 238
4 5 4 6 7 7 353 343 360 257 216 221 205 257 236 230 214 216 197 210 185 181 164 178 197 179 131 120 227 216 228 246 242 211 132 191 259 268 263 275 265 258 250 241 238
353 356 356 0 5 9 0 353 6 240 225 221 213 238 217 188 178 184 189 190 187 191 182 201 152 214 197 204 222 267 264 258 258 228 168 228 243 257 259 268 256 259 256 250 246
339 343 347 348 350 0 358 31 348 301 296 267 256 250 263 206 169 193 195 186 189 206 196 192 238 234 205 216 232 257 259 265 282 247 183 258 259 258 252 237 251 260 257 255 255
329 332 335 341 336 352 25 14 342 325 277 302 188 249 211 205 218 203 189 203 198 205 205 197 223 184 198 238 252 248 222 249 252 287 248 307 278 247 265 258 265 262 265 261 255
321 321 328 343 298 340 336 342 340 337 29 261 157 108 158 173 260 226 213 209 231 214 214 239 242 240 253 229 199 257 215 240 258 250 248 146 285 246 262 265 274 270 263 239 238
319 309 317 325 306 319 323 328 330 357 10 107 127 148 161 168 142 154 189 227 229 255 182 243 244 202 229 241 182 243 201 214 223 246 356 240 320 276 224 282 264 282 228 187 180
324 300 295 302 297 243 316 319 332 53 259 91 117 148 116 221 216 137 179 208 283 259 256 249 261 230 215 87 181 137 101 38 48 85 273 212 178 279 226 249 337 1 147 138 138
332 309 274 265 243 266 298 310 51 146 319 51 75 160 221 201 213 175 169 175 197 227 255 297 243 226 168 193 28 163 91 299 309 73 241 226 173 258 329 7 10 4 59 70 79
4 66 79 32 309 259 193 62 174 273 11 356 356 280 219 270 244 183 149 252 244 223 276 239 294 170 199 203 186 192 168 176 211 202 252 116 222 107 15 21 15 15 15 49 53
82 69 38 30 48 133 146 80 28 26 321 338 339 5 344 21 8 349 213 268 286 209 212 260 260 50 153 159 148 193 183 208 307 194 346 217 263 186 14 12 8 2 10 36 48
123 66 30 18 51 118 77 91 107 22 326 330 74 51 358 335 6 23 314 354 334 8 341 313 284 249 197 110 12 157 195 126 204 206 217 255 160 323 4 358 3 13 24 30 38
107 80 10 9 74 57 90 54 60 38 25 24 20 352 7 11 341 331 302 73 13 346 11 6 313 287 103 195 180 144 247 233 196 177 225 241 180 23 9 5 5 16 18 22 28
62 48 359 25 57 42 48 358 354 19 30 29 87 39 22 6 314 307 311 11 30 26 0 9 296 279 235 250 205 203 254 245 237 241 247 240 183 34 21 20 16 21 19 22 28
61 26 19 37 76 19 344 345 61 29 30 28 26 56 15 22 303 322 342 351 19 358 10 351 339 312 296 294 25 34 40 2 321 289 244 253 157 37 24 19 22 21 21 25 27
57 43 32 57 56 94 33 5 25 43 67 348 281 79 336 243 237 299 304 311 342 319 297 181 219 270 290 307 303 304 21 359 317 269 340 21 130 22 21 27 14 17 18 19 23
46 47 22 8 2 12 27 28 51 21 8 8 38 59 28 303 309 240 303 313 293 292 15 337 286 263 277 290 308 55 15 36 79 345 168 60 101 28 348 23 34 25 19 17 16
64 23 22 10 12 21 20 3 35 9 322 338 30 340 324 269 277 301 326 250 236 293 29 352 281 319 296 284 286 80 36 74 49 359 34 64 82 9 340 0 32 28 18 12 8
56 53 16 10 24 51 30 37 13 14 305 357 337 317 304 296 302 288 273 262 250 276 283 271 227 52 264 332 161 67 12 72 85 36 359 38 345 337 342 355 34 25 14 5 360